Hawarden, United Kingdom

8:51 PM BST on April 27, 2017 (GMT +0100)
Hawarden

Weather History for EGNR - October, 2013

Change the Weather History Date:

Saturday, October 5, 2013

  Actual Average (EGGP) Record (EGGP)
Temperature  
Mean Temperature 60 °F -  
Max Temperature 64 °F 54 °F 68 °F (2011)
Min Temperature 55 °F 44 °F 39 °F (1999)
Degree Days  
Heating Degree Days 6    
Growing Degree Days 10 (Base 50)    
Moisture  
Dew Point 51 °F    
Average Humidity 68    
Maximum Humidity 86    
Minimum Humidity 51    
Precipitation  
Precipitation 0.00 in - - ()
Sea Level Pressure  
Sea Level Pressure 30.12 in    
Wind  
Wind Speed 5 mph ()    
Max Wind Speed 15 mph    
Max Gust Speed -    
Visibility 8.6 miles    
Events      
Averages and records for this station are not official NWS values.
T = Trace of Precipitation, MM = Missing Value Source: Averaged Metar Reports

Daily Weather History Graph

Daily Weather History Graph

Search for Another Location

Airport or City:

Trip Planner

Search our weather history database for the weather conditions in past years. The results will help you decide how hot, cold, wet, or windy it might be!

Date:

Astronomy

Oct. 05, 2013 Rise Set
Actual Time 7:20 AM BST 6:39 PM BST
Civil Twilight 6:45 AM BST 7:13 PM BST
Nautical Twilight 6:05 AM BST 7:53 PM BST
Astronomical Twilight 5:24 AM BST 8:34 PM BST
Moon 7:52 AM BST (10/5) 6:37 PM BST (10/5)
Length of Visible Light 12h 27m
Length of Day
11h 18m
New Moon, 0% of the Moon is Illuminated
Oct 5
New Moon
Oct 12
First Quarter
Oct 19
Full
Oct 27
Last Quarter
Nov 3
New

Hourly Weather History & Observations

Time (BST) Temp. Dew Point Humidity Pressure Visibility Wind Dir Wind Speed Gust Speed Precip Events Conditions
12:50 AM 58 °F 55 °F 86% 29.95 in 22 mi SSW 2.3 mph - -   Partly Cloudy
3:50 AM 57 °F 53 °F 84% 29.99 in 19 mi WNW 4.6 mph - -   Mostly Cloudy
8:20 AM 57.2 °F 51.8 °F 82% 30.06 in 6.2 mi West 5.8 mph - N/A   Mostly Cloudy
8:50 AM 55.4 °F 50.0 °F 82% 30.09 in 6.2 mi Variable 3.5 mph - N/A   Mostly Cloudy
9:20 AM 59.0 °F 51.8 °F 77% 30.09 in 6.2 mi Variable 3.5 mph - N/A   Mostly Cloudy
9:50 AM 59 °F 50 °F 64% 30.12 in 15 mi WSW 5.8 mph - -   Mostly Cloudy
9:50 AM 59.0 °F 50.0 °F 72% 30.09 in 6.2 mi WSW 6.9 mph - N/A   Mostly Cloudy
10:20 AM 60.8 °F 50.0 °F 68% 30.12 in 6.2 mi WSW 8.1 mph - N/A   Mostly Cloudy
10:50 AM 60.8 °F 48.2 °F 63% 30.12 in 6.2 mi WSW 6.9 mph - N/A   Mostly Cloudy
11:20 AM 60.8 °F 50.0 °F 68% 30.12 in 6.2 mi WSW 6.9 mph - N/A   Mostly Cloudy
11:50 AM 60.8 °F 48.2 °F 63% 30.12 in 6.2 mi WSW 6.9 mph - N/A   Mostly Cloudy
12:20 PM 60.8 °F 50.0 °F 68% 30.15 in 6.2 mi WSW 6.9 mph - N/A   Mostly Cloudy
12:50 PM 62 °F 49 °F 51% 30.17 in 17 mi WSW 6.9 mph - -   Overcast
12:50 PM 62.6 °F 50.0 °F 63% 30.15 in 6.2 mi WSW 9.2 mph - N/A   Scattered Clouds
1:20 PM 62.6 °F 50.0 °F 63% 30.15 in 6.2 mi SW 5.8 mph - N/A   Scattered Clouds
1:50 PM 62.6 °F 48.2 °F 59% 30.15 in 6.2 mi NW 4.6 mph - N/A   Scattered Clouds
2:20 PM 64.4 °F 50.0 °F 59% 30.15 in 6.2 mi Variable 3.5 mph - N/A   Scattered Clouds
2:50 PM 64.4 °F 51.8 °F 64% 30.15 in 6.2 mi West 5.8 mph - N/A   Mostly Cloudy
3:20 PM 64.4 °F 51.8 °F 64% 30.15 in 6.2 mi Variable 2.3 mph - N/A   Mostly Cloudy
3:50 PM 64 °F 51 °F 52% 30.17 in 25 mi WSW 6.9 mph - -   Partly Cloudy
3:50 PM 64.4 °F 51.8 °F 64% 30.15 in 6.2 mi WSW 6.9 mph - N/A   Mostly Cloudy
6:50 PM 57 °F 52 °F 77% 30.19 in 15 mi SW 8.1 mph - -   Scattered Clouds
9:50 PM 57 °F 51 °F 74% 30.21 in 16 mi WSW 15.0 mph - -